Regional Weather Roundup
Issued by NWS

Home | Current Version | Previous Version | Text Only | Print | Product List | Glossary On
Versions: 1 2 3 4 5 6 7 8 9 10 11 12 13 14 15 16 17 18 19 20 21 22 23 24 25 26 27 28 29 30 31 32 33 34 35 36 37 38 39 40 41 42 43 44 45 46 47 48 49 50
000
ASHW40 PHFO 311843
RWRHI

WEATHER ROUNDUP FOR HAWAII
NATIONAL WEATHER SERVICE HONOLULU HI
800 AM HST TUE MAY 31 2016

THIS IS AN AUTOMATED REPORT THAT HAS NOT BEEN QUALITY CONTROLLED.

NOTE..."FAIR" INDICATES FEW OR NO CLOUDS BELOW 12,000 FEET WITH NO
SIGNIFICANT WEATHER AND/OR OBSTRUCTIONS TO VISIBILITY.

* - THESE SITES REPORT LIMITED FIELDS

HIZ001>004-311900-
KAUAI-NIIHAU-

CITY           SKY/WX    TMP DP  RH WIND       PRES   REMARKS
LIHUE APT      CLOUDY    74  63  68 NE16      30.07R
PORT ALLEN*      N/A     77 N/A N/A NE6         N/A
POIPU*           N/A     75 N/A N/A NE6G13      N/A
PRINCEVILLE*     N/A     70 N/A N/A S3          N/A
KOKOLE POINT*  NOT AVBL
MOLOAA DAIRY*    N/A     75  63  64 NE3G9       N/A
WAIMEA HTS*      N/A     81  63  54 SW2         N/A
PUU OPAE*        N/A     72  59  64 S3G14       N/A
PUU LUA*       NOT AVBL
MAKAHA RIDGE*    N/A    N/A N/A N/A NE3G15      N/A
$$

HIZ005>011-311900-
OAHU-

CITY           SKY/WX    TMP DP  RH WIND       PRES   REMARKS
HONOLULU       PTSUNNY   74  66  76 N6        30.03R
KALAELOA         N/A     76  65  68 NE8G16    30.04R
KANEOHE MCB    CLOUDY    72  32  23 NE15      30.02R
WHEELER FIELD  FAIR      70  67  91 NW8       30.03R
BELLOWS*         N/A    N/A N/A N/A N15G22      N/A
KAHUKU*          N/A    N/A N/A N/A VRB6G12     N/A
WHEELER*         N/A    N/A N/A N/A NW7         N/A
WAIANAE HARBOR   N/A    N/A N/A N/A W5          N/A
DILLINGHAM*      N/A     72  66  83 MISG        N/A
KAHUKU TRN*      N/A     72  64  78 CALM        N/A
KAWAILOA*        N/A     66  64  94 NE10        N/A
KII*             N/A     75  68  78 NE14        N/A
MAKUA RANGE*     N/A     82  73  74 E12G21      N/A
OAHU FOREST NW NOT AVBL
SCHOFIELD BRK* NOT AVBL
SCHOFIELD S*   NOT AVBL
WAIANAE VLY*   NOT AVBL
KUAOKALA*        N/A     70 N/A N/A NE15        N/A
HONOULIUULI*   NOT AVBL
MOKUOLOE IS*   NOT AVBL
PALEHUA*         N/A     66  63  88 NE12G21     N/A
WAIAWA PHB*    NOT AVBL
$$

HIZ012>013-311900-
MOLOKAI-

CITY           SKY/WX    TMP DP  RH WIND       PRES   REMARKS
MOLOKAI AIRPT  CLOUDY    72  68  88 NE12G20   30.04R
KALAUPAPA      NOT AVBL
MAKAPULAPAI*     N/A     73  68  83 E15G22      N/A
MOLOKAI 1*     NOT AVBL
PUU ALII*        N/A     59  59 100 NE2G8       N/A
$$

HIZ016-311900-
KAHOOLAWE-

CITY           SKY/WX    TMP DP  RH WIND       PRES   REMARKS
KAHOOLAWE*       N/A     70 N/A N/A NE1         N/A
HAKIOAWA*        N/A     88  80  77 MISG      30.44R HX 105
HONOKANAIA*      N/A     77  67  71 N8G17     29.95R
KANELOA*         N/A     72  66  83 NE9G17    30.07R
KEALIALALO*    NOT AVBL
LUA MAKIKA*    NOT AVBL
$$

HIZ014>015-311900-
LANAI-

CITY           SKY/WX    TMP DP  RH WIND       PRES   REMARKS
LANAI CITY     FAIR      72  66  81 NE10      30.07R
LANAI 1*       NOT AVBL
$$

HIZ017>028-311900-
MAUI-

CITY           SKY/WX    TMP DP  RH WIND       PRES   REMARKS
KAHULUI        MOSUNNY   76  70  82 NE7       30.02R
KAPALUA-W MAUI PTSUNNY   73  68  83 NE12      30.03
HANA AIRPORT   NOT AVBL
HANA*            N/A     72 N/A N/A NW3G14      N/A
HALEAKALA SUMM   N/A     54  28  37 N2G25       N/A
MAALAEA BAY*     N/A     75 N/A N/A N13G18      N/A
HALEAKALA*     NOT AVBL
KAUPO GAP*       N/A     70  64  83 CALM        N/A
KULA 1*          N/A     54  52  94 NW3         N/A
$$

HIZ023>026-311900-
BIG ISLAND OF HAWAII COAST AND LOWER SLOPES-

CITY           SKY/WX    TMP DP  RH WIND       PRES   REMARKS
KAILUA KONA    MOSUNNY   79  64  60 W5        29.99R
HILO           MOSUNNY   78  65  63 CALM      30.01R
HONOKAA*         N/A     77 N/A N/A VRB1        N/A
KAWAIHAE MWT*    N/A     79 N/A N/A W6          N/A
KAWAIHAE*        N/A     77 N/A N/A W3        30.00R
SOUTH POINT*     N/A     73 N/A N/A NE7         N/A
UPOLU AIRPORT*   N/A    N/A N/A N/A NE9         N/A
KAMUELA*       NOT AVBL
HAKALAU*         N/A     61  54  77 NE3G10      N/A
KALOKO-HONOKO*   N/A     81  63  54 SW5       29.99R
PALI 2*          N/A     70  59  68 NW5         N/A
KEALAKOMO*       N/A     81  63  54 S3          N/A
KAUPULEHU*       N/A     77  63  61 NW5         N/A
KAPAPALA*        N/A     73  63  69 N1          N/A
LOWER KAHUKU*    N/A     63 -38   1 NE1         N/A
PUHE CS*         N/A     79  63  57 W3          N/A
PUHO CS*         N/A     81  63  53 NE2         N/A
PTA KEAMUKU*     N/A     70  57  64 CALM        N/A
WAIKOLOA*        N/A     79  63  57 NW5         N/A
$$

HIZ027>028-311900-
BIG ISLAND OF HAWAII INTERIOR AND SUMMMITS-

CITY           SKY/WX    TMP DP  RH WIND       PRES   REMARKS
BRADSHAW FIELD MOSUNNY   61  46  57 SW3       30.31R
MK VISITOR CEN   N/A     52  36  54 SW3         N/A
MAUNA KEA*       N/A     43  10  26 N10         N/A
MAUNA LOA*       N/A     50  10  20 MISG        N/A
MAUNA LOA 1*   NOT AVBL
PTA KIPUKA*      N/A     46  36  66 NW2         N/A
PTA RANGE 17*    N/A     48  36  61 SW3         N/A
PTA WEST*        N/A     72  55  56 W2G9        N/A
NENE CABIN*      N/A     57  45  62 E3          N/A
AHUMOA*          N/A     60  52  75 N7          N/A
PTA PORTABLE*  NOT AVBL
PUU MALI*        N/A     61  52  72 NE5         N/A
$$

HIC003-311900-
NORTHWEST ISLANDS-

CITY           SKY/WX    TMP DP  RH WIND       PRES   REMARKS
MIDWAY ISLAND  PTSUNNY   73  68  83 SE9       30.14R
MIDWAY NOS*      N/A     73 N/A N/A MISG      30.14R
FRENCH FRIGATE NOT AVBL
$$

PHZ110>124-180-311900-
BUOY REPORTS

STATION/POSITION TIME  TEMP    WIND        PRES    WAVE   SWELL
                       AIR SEA DIR/SP/G            HT/PER HT/DIR
                 (UTC) (F)     (DEG/KT/KT) (MB)    (FT/S) (FT/D)
BUOY 51001       1800   78 80   70/ 10/ 14 1017.5R
BUOY 51101       1750   75 78   50/ 16/ 19 1020.0R   6/ 7   3/130
BUOY 51100       NOT AVBL
BUOY 51002       1750   78 79   70/ 12/ 14 1015.1R   5/13   3/350
BUOY 51003       1750   76 80   80/ 12/ 14 1015.7R   5/14   5/140
BUOY 51004       1750   77 79   60/ 10/ 12 1015.4R   5/13   5/170
BARBERS PT BUOY  NOT AVBL
WAIMEA BAY BUOY  1804      78                N/A     5/ 7   2/340
KAILUA BAY BUOY  1811      79                N/A     7/ 7   2/130
LANAI BUOY       1815      79                N/A     3/13   2/190
BARBERS PT 2     1803      79                N/A     4/13   3/180
PAUWELA MAUI     1809      78                N/A     5/ 7   2/330
HILO             1812      79                N/A     4/12   2
KANEOHE BAY BUOY 1806      78                N/A     5/ 7   2/330
HANALEI KAUAI    NOT AVBL
KAHULUI HARBOR   1800   75 80   30/ 15/ 21 1016.3R
HONOLULU HARBOR  1800   74 79   20/  5/  8 1017.5R
KILO NALU        NOT AVBL
HILO HARBOR      1800   77 78   CALM  /  1 1015.7R
MOKUOLOE         1700   72 81   50/  8/ 12 1016.9R
NAWILIWILI       1800   74 80   30/  8/ 11 1017.8R
WHOTS BUOY       NOT AVBL
BUOY 51028       NOT AVBL
$$

......................KEY........................................
  SKY/WX - SKY CONDITIONS/PRESENT WEATHER
  TMP    - TEMPERATURE IN FAHRENHEIT
  DWPT   - DEWPOINT IN FAHRENHEIT
  RH     - RELATIVE HUMIDITY IN PERCENT
  WIND   - DIRECTION AND SPEED /MPH FOR ISLANDS...KTS FOR BUOYS/
  PRES   - MEAN SEA LEVEL PRESSURE IN INCHES OF HG
  VSB    - VISIBILITY IN MILES
  HX     - HEAT INDEX
  WCI    - WIND CHILL INDEX
  VRB    - VARIABLE WIND DIRECTION
  N/A    - NOT AVAILABLE



USA.gov is the U.S. government's official web portal to all federal, state and local government web resources and services.